Gillette, WY

12:49 AM MST on January 16, 2018 (GMT -0700)
Gillette-Campbell County

Weather History for KGCC - January, 2014

Change the Weather History Date:

Friday, January 3, 2014

  Actual Average Record
Temperature  
Mean Temperature 32 °F 25 °F  
Max Temperature 42 °F 37 °F 39 °F (2016)
Min Temperature 21 °F 14 °F -10 °F (2015)
Degree Days  
Heating Degree Days 33 40  
Month to date heating degree days 112 120  
Since 1 July heating degree days 3224 3261  
Cooling Degree Days 0 0  
Month to date cooling degree days 0 0  
Year to date cooling degree days 0 0  
Moisture  
Dew Point 25 °F    
Average Humidity 73    
Maximum Humidity 89    
Minimum Humidity 56    
Precipitation  
Precipitation 0.01 in 0.01 in 0.06 in (2015)
Month to date precipitation 0.10 0.03  
Year to date precipitation 0.10 0.03  
Sea Level Pressure  
Sea Level Pressure 29.63 in    
Wind  
Wind Speed 24 mph (WNW)    
Max Wind Speed 38 mph    
Max Gust Speed 46 mph    
Visibility 9 miles    
Events Snow    
T = Trace of Precipitation, MM = Missing Value Source: NWS Daily Summary

Daily Weather History Graph

Daily Weather History Graph

Search for Another Location

Airport or City:

Trip Planner

Search our weather history database for the weather conditions in past years. The results will help you decide how hot, cold, wet, or windy it might be!

Date:

Astronomy

Jan. 03, 2014 Rise Set
Actual Time 7:38 AM MST 4:35 PM MST
Civil Twilight 7:05 AM MST 5:08 PM MST
Nautical Twilight 6:28 AM MST 5:45 PM MST
Astronomical Twilight 5:53 AM MST 6:20 PM MST
Moon 8:59 AM MST (1/3) 7:55 PM MST (1/3)
Length of Visible Light 10h 03m
Length of Day
8h 57m
Waxing Crescent, 8% of the Moon is Illuminated
Jan 3
Waxing Crescent
Jan 7
First Quarter
Jan 15
Full
Jan 23
Last Quarter
Jan 30
New

Hourly Weather History & Observations

Time (MST) Temp. Windchill Dew Point Humidity Pressure Visibility Wind Dir Wind Speed Gust Speed Precip Events Conditions
12:53 AM 35.1 °F 23.0 °F 23.0 °F 61% 29.81 in 10.0 mi SSW 24.2 mph - N/A   Partly Cloudy
1:53 AM 35.1 °F 23.3 °F 23.0 °F 61% 29.76 in 10.0 mi SW 23.0 mph - N/A   Clear
2:53 AM 36.0 °F 23.9 °F 24.1 °F 62% 29.73 in 10.0 mi SW 25.3 mph - N/A   Clear
3:53 AM 36.0 °F 24.7 °F 24.1 °F 62% 29.68 in 10.0 mi SSW 21.9 mph 33.4 mph N/A   Clear
4:53 AM 37.0 °F 25.4 °F 24.1 °F 59% 29.64 in 10.0 mi SW 25.3 mph - N/A   Clear
5:53 AM 37.9 °F 26.6 °F 25.0 °F 60% 29.59 in 10.0 mi SW 25.3 mph 32.2 mph N/A   Clear
6:53 AM 37.9 °F 27.1 °F 25.0 °F 60% 29.55 in 10.0 mi SW 23.0 mph 33.4 mph N/A   Clear
7:53 AM 39.0 °F 27.2 °F 26.1 °F 60% 29.52 in 10.0 mi SW 29.9 mph 39.1 mph N/A   Clear
8:53 AM 39.0 °F 27.2 °F 26.1 °F 60% 29.51 in 10.0 mi SW 29.9 mph 39.1 mph N/A   Clear
9:53 AM 39.9 °F 28.8 °F 27.0 °F 60% 29.50 in 10.0 mi SW 27.6 mph 38.0 mph N/A   Mostly Cloudy
10:53 AM 39.0 °F 27.6 °F 27.0 °F 62% 29.46 in 10.0 mi SW 27.6 mph 35.7 mph N/A   Overcast
11:53 AM 39.9 °F 30.2 °F 27.0 °F 60% 29.45 in 10.0 mi WSW 20.7 mph - N/A   Overcast
12:53 PM 39.9 °F 30.2 °F 28.0 °F 63% 29.42 in 10.0 mi WSW 20.7 mph - N/A   Overcast
1:53 PM 41.0 °F 31.9 °F 28.9 °F 62% 29.47 in 10.0 mi NNW 19.6 mph 25.3 mph N/A   Overcast
2:00 PM 41.0 °F 33.5 °F 28.4 °F 61% 29.45 in 10.0 mi WNW 13.8 mph 25.3 mph N/A   Overcast
2:53 PM 39.0 °F 28.8 °F 28.9 °F 67% 29.53 in 10.0 mi NW 21.9 mph 29.9 mph N/A   Overcast
3:40 PM 35.6 °F 24.5 °F 30.2 °F 81% 29.57 in 3.0 mi NW 20.7 mph - 0.00 in Snow Light Snow
3:42 PM 33.8 °F 21.6 °F 30.2 °F 87% 29.56 in 1.8 mi NW 23.0 mph 27.6 mph 0.00 in Snow Light Snow
3:51 PM 33.8 °F 22.5 °F 30.2 °F 87% 29.56 in 3.0 mi NW 19.6 mph 29.9 mph 0.00 in Snow Light Snow
3:53 PM 34.0 °F 23.4 °F 30.0 °F 85% 29.61 in 8.0 mi NW 17.3 mph 29.9 mph 0.01 in   Overcast
4:00 PM 33.8 °F 22.8 °F 30.2 °F 87% 29.57 in 10.0 mi NW 18.4 mph - N/A   Overcast
4:17 PM 33.8 °F 24.3 °F 30.2 °F 87% 29.55 in 10.0 mi NW 13.8 mph 21.9 mph N/A   Overcast
4:53 PM 35.1 °F 24.5 °F 28.0 °F 76% 29.60 in 10.0 mi NW 18.4 mph 27.6 mph N/A   Overcast
5:53 PM 35.1 °F 21.4 °F 21.0 °F 57% 29.62 in 10.0 mi NW 32.2 mph 46.0 mph N/A   Overcast
6:53 PM 32.0 °F 17.2 °F 21.9 °F 66% 29.68 in 10.0 mi NNW 32.2 mph 40.3 mph N/A   Mostly Cloudy
7:53 PM 25.0 °F 8.1 °F 19.9 °F 81% 29.79 in 10.0 mi NNW 29.9 mph 39.1 mph N/A   Unknown
8:09 PM 24.8 °F 7.9 °F 19.4 °F 80% 29.75 in 10.0 mi NNW 29.9 mph 34.5 mph N/A   Overcast
8:53 PM 24.1 °F 8.7 °F 19.0 °F 81% 29.83 in 10.0 mi North 23.0 mph 32.2 mph N/A   Overcast
9:53 PM 23.0 °F 7.2 °F 18.0 °F 81% 29.87 in 9.0 mi North 23.0 mph 28.8 mph 0.00 in   Overcast
10:53 PM 21.9 °F 6.2 °F 17.1 °F 82% 29.91 in 10.0 mi NW 21.9 mph 27.6 mph N/A   Overcast
11:53 PM 21.0 °F 7.6 °F 16.0 °F 81% 29.95 in 10.0 mi NW 15.0 mph - N/A   Overcast